Content
SEND FEEDBACK

Daily
Averages
Monthly
Summary
United States of America

BULVERDE, TEXAS


Home > North America > United States > Texas
Elevation: 1100 feet     Latitude: 29 45N     Longitude: 098 27W

WEATHER
 
SELECT A DAY
Number of Records: 203,049;   Date Range: 1/1/95 - 10/24/14
 
SHARE

PRINT THIS DATA

[ ← Previous Day ]
WEATHER ALMANAC - JANUARY 31, 2013
[ Next Day → ]
[ °C ]   °F
Weather ElementAverageHighLow
Temperature49.9 °F66.9 °F (3:51 pm)32 °F (3:51 am)
Dewpoint21.4 °F32 °F (11:51 pm)15.1 °F (12:51 pm)
Humidity39.5 %70 % (1:51 am)14 % (2:51 pm)
Barometer30.23 in30.30 in (10:51 am)30.17 in (3:51 pm)
Wind Speed6.1 mph12.7 mph (10:51 am)
Wind Gust18.4 mph (1:51 pm)
Weather ElementAverage
Visibility10 mi
Wind DirectionWSW (245.2 °)

Weather ElementTotal
Precipitation---
Heating Degree Days15.6 (Base 65)
Averaged from 23 records on January 31, 2013
WEATHER CONDITIONS BREAKOUT
WIND DIRECTION BREAKOUT
WEATHER BY HOUR - JANUARY 31, 2013
[ °C ]   °F
Local TimeTemperatureDewpointHumidityBarometerVisibilityWind DirectionWind SpeedGust SpeedPrecipitationEventsConditions
1:51 AM33.1 °F24.1 °F70 %30.20 in10.0 miNW (310°)6.9 mphClear
2:51 AM34.0 °F23.0 °F64 %30.20 in10.0 miWNW (300°)6.9 mphClear
3:51 AM32.0 °F23.0 °F69 %30.21 in10.0 miWNW (300°)5.8 mphClear
4:51 AM33.1 °F24.1 °F70 %30.22 in10.0 miNW (320°)3.5 mphClear
5:51 AM33.1 °F24.1 °F70 %30.22 in10.0 miNNW (330°)4.6 mphClear
6:51 AM35.1 °F23.0 °F61 %30.24 in10.0 miNW (310°)3.5 mphClear
7:51 AM35.1 °F24.1 °F64 %30.26 in10.0 miNW (320°)3.5 mphClear
8:51 AM48.9 °F21.0 °F33 %30.28 in10.0 miWest (260°)3.5 mphMostly Cloudy
9:51 AM53.1 °F16.0 °F23 %30.28 in10.0 miSW (220°)8.1 mphMostly Cloudy
10:51 AM57.9 °F17.1 °F20 %30.30 in10.0 miSW (230°)12.7 mphScattered Clouds
11:51 AM60.1 °F17.1 °F19 %30.29 in10.0 miSW (230°)10.4 mphMostly Cloudy
12:51 PM63.0 °F15.1 °F16 %30.26 in10.0 miSW (230°)12.7 mphMostly Cloudy
1:51 PM66.0 °F16.0 °F15 %30.21 in10.0 miSW (230°)12.7 mph18.4 mphPartly Cloudy
2:51 PM66.0 °F15.1 °F14 %30.19 in10.0 miSSW (200°)9.2 mph16.1 mphScattered Clouds
3:51 PM66.9 °F16.0 °F14 %30.17 in10.0 miWest (260°)9.2 mphMostly Cloudy
4:51 PM64.9 °F17.1 °F16 %30.18 in10.0 miSW (230°)5.8 mphMostly Cloudy
5:51 PM64.0 °F17.1 °F16 %30.17 in10.0 miSSW (210°)6.9 mphMostly Cloudy
6:51 PM62.1 °F18.0 °F18 %30.19 in10.0 miSW (220°)3.5 mphMostly Cloudy
7:51 PM54.0 °F23.0 °F30 %30.22 in10.0 miCalmMostly Cloudy
8:51 PM48.9 °F28.0 °F44 %30.25 in10.0 miNW (310°)3.5 mphMostly Cloudy
9:51 PM46.9 °F28.9 °F50 %30.25 in10.0 miWNW (300°)4.6 mphMostly Cloudy
10:51 PM45.0 °F28.9 °F53 %30.27 in10.0 miCalmOvercast
11:51 PM45.0 °F32.0 °F60 %30.26 in10.0 miNW (320°)3.5 mphOvercast
Hourly data recorded from KSAT, located miles away from Bulverde, Texas







STORIES FROM OUR PARTNERS